User: anonymous   Login
Location: Unspecified
(50.1700°N, 6.8600°E)
Time: 13:01:58
(UTC+00:00)
Language:

CZ-4B R/B - Orbit

View from above orbital plane
View from above orbital plane
View from above satellite
View from above satellite

Ground track
Ground track

The orbit data is extracted from the following two-line orbital elements,

1 27432U 02024C   19323.97894028 -.00000018  00000-0  14606-4 0  9992
2 27432  99.0806 317.6934 0051245  50.8177   2.2414 14.14086036903985
Epoch (UTC): 19 November 2019 23:29:40
Eccentricity: 0.0051245
inclination: 99.0806°
perigee height: 808 km
apogee height: 882 km
right ascension of ascending node: 317.6934°
argument of perigee: 50.8177°
revolutions per day: 14.14086036
mean anomaly at epoch: 2.2414°
orbit number at epoch: 90398

The dashed part of the orbit path shows where the satellite is in the earth's shadow,  

DLR